Probability
11 13 16 17 17 16 14 10 7 4 1 0 1 2 2 1 0 0 0 0 0 0 0 0 0 0 0 0 0 0 0 0 0 0 0 0 0 0 0 0 0 0 0
16 17 19 20 19 17 15 11 8 5 3 1 0 1 2 1 0 0 0 0 0 0 0 0 0 0 0 0 0 0 0 0 0 0 0 0 0 0 0 0 0 0 0
21 20 21 22 20 17 15 13 10 8 6 3 1 1 2 2 1 0 0 0 0 0 0 0 0 0 0 0 0 0 0 0 0 0 0 0 0 0 0 0 0 0 0
22 21 22 24 21 17 15 13 11 10 8 6 2 1 1 2 1 0 0 0 0 0 0 0 0 0 0 0 0 0 0 0 0 0 0 0 0 0 0 0 0 0 0
26 25 26 26 24 19 16 14 12 10 9 7 4 2 2 2 1 0 0 0 0 0 0 0 0 0 0 0 0 0 0 0 0 0 0 0 0 0 0 0 0 0 0
30 30 28 28 25 21 18 15 12 10 9 8 6 4 2 2 2 2 1 0 0 0 0 0 0 0 0 0 0 0 0 0 0 0 0 0 0 0 0 0 0 0 0
30 29 27 27 25 20 18 16 14 12 11 8 6 4 2 3 5 6 5 3 2 1 0 0 0 0 0 0 0 0 0 0 0 0 0 0 0 0 0 0 0 0 0
26 25 24 24 22 18 17 16 15 13 12 10 8 6 5 5 7 9 8 7 6 4 2 1 1 0 1 1 1 0 0 0 0 0 0 0 0 0 0 0 0 0 0
22 21 20 21 19 17 15 14 13 12 12 11 8 7 6 5 6 9 9 9 8 6 3 2 1 1 2 2 2 1 0 0 0 0 0 0 0 0 0 0 0 0 0
20 18 18 18 18 17 14 13 11 10 11 10 7 5 4 4 5 7 8 8 9 7 3 1 1 2 3 3 2 1 0 0 0 0 0 0 0 0 0 0 0 0 0
19 17 16 17 17 17 15 13 12 11 10 10 7 4 4 5 6 6 6 7 7 5 1 1 2 4 3 2 2 1 0 0 0 0 0 0 0 0 0 0 0 0 0
18 17 16 16 16 16 16 16 15 13 11 10 9 6 6 7 6 6 5 5 4 2 0 1 3 3 2 1 1 0 0 0 0 0 0 0 0 0 1 1 1 0 0
16 15 15 16 16 16 17 18 17 14 12 11 10 9 8 7 6 6 6 5 4 3 1 1 2 2 1 0 0 0 0 0 0 0 0 0 0 1 2 2 1 0 0
14 14 14 14 15 16 16 17 18 16 13 11 9 8 9 7 6 7 8 8 7 6 4 2 1 1 0 0 0 0 0 0 0 0 0 0 0 1 2 3 2 0 0
14 13 13 13 14 14 15 17 18 17 13 9 6 5 6 8 8 9 9 8 8 7 6 4 2 0 0 0 0 0 0 0 0 0 0 0 0 1 2 3 2 1 0
14 13 12 13 13 13 14 15 16 15 11 7 4 2 3 7 9 10 8 7 6 6 6 5 3 1 0 0 0 0 0 0 0 0 0 0 0 1 2 3 3 2 1
13 12 12 12 13 13 13 14 14 12 9 6 4 2 3 6 8 8 7 6 5 6 6 4 3 1 0 0 0 0 0 0 0 0 0 0 0 0 1 3 3 3 2
13 13 12 12 13 13 13 13 13 10 7 6 5 4 3 4 6 6 6 6 5 6 7 5 3 2 1 0 0 0 0 0 0 0 0 0 0 0 1 2 3 3 4
13 13 13 13 13 13 12 11 11 8 5 5 5 5 4 3 3 4 4 5 5 6 6 5 3 2 1 0 0 0 0 0 0 0 0 0 0 0 1 1 1 3 4
13 13 13 13 13 12 10 9 9 7 5 4 4 6 5 3 2 1 2 3 4 5 5 4 3 2 1 0 0 0 0 0 0 0 0 0 0 1 2 2 1 1 1
14 14 13 11 11 10 8 7 8 7 4 2 3 5 6 5 2 1 2 2 2 3 5 5 4 2 1 0 0 0 0 0 0 0 0 0 0 1 2 3 2 1 0
14 14 12 9 8 9 8 6 6 6 4 2 2 4 5 5 4 3 2 1 1 2 5 5 4 2 1 0 0 0 0 0 0 0 0 0 0 1 2 3 2 1 0
13 12 11 8 7 8 7 6 5 6 4 2 1 1 3 4 4 3 2 1 1 2 5 5 4 2 1 0 0 0 0 0 0 0 0 0 0 0 1 2 1 0 0
9 10 9 8 7 7 7 6 5 5 4 2 0 0 1 1 2 2 2 2 2 2 3 5 4 3 1 0 0 0 0 0 0 0 0 0 0 0 1 2 1 0 0
6 8 9 7 6 6 6 6 4 4 4 2 1 0 0 1 2 2 2 2 2 1 2 5 5 4 2 1 0 0 0 0 0 0 0 0 0 0 1 1 1 0 0
3 6 8 7 5 6 6 6 4 3 3 3 2 1 0 1 2 3 2 2 2 2 3 4 5 4 2 1 0 0 0 0 0 0 0 0 0 0 0 1 0 0 0
Wind_Speed
4 4 3 4 5 5 6 7 8 8 8 8 8 9 9 10 10 11 11 11 11 11 12 13 14 14 14 15 15 16 16 16 16 17 16 15 15 16 16 15 15 12 18
4 5 4 4 5 5 6 7 7 8 8 8 8 8 8 9 10 10 10 10 11 11 12 13 14 14 14 14 14 14 14 13 14 14 13 12 13 15 16 16 15 11 17
5 5 4 5 5 5 6 7 7 7 7 7 8 8 8 8 9 10 9 10 11 11 12 13 14 14 14 13 13 12 12 11 10 10 10 7 10 15 16 16 16 17 17
5 5 5 5 5 6 6 6 7 7 7 7 7 7 7 8 9 9 9 9 10 11 12 13 13 13 13 12 11 10 10 8 8 7 6 7 7 14 15 16 16 16 17
5 5 5 5 6 6 6 6 6 6 6 7 7 7 7 7 8 8 9 9 10 11 12 12 12 12 12 11 10 8 7 7 7 7 7 7 7 13 15 15 16 16 16
5 5 5 5 6 6 6 5 6 5 6 6 6 6 6 7 7 8 8 9 9 10 11 11 12 11 11 10 9 7 7 7 6 5 6 6 6 13 15 15 15 15 15
5 5 4 5 5 6 6 5 5 5 5 5 5 6 6 6 7 7 8 8 9 10 10 11 11 11 10 9 8 7 7 7 6 6 6 6 8 14 15 15 15 15 15
5 5 4 6 5 5 5 5 5 4 4 4 5 5 5 6 6 7 7 8 8 9 10 10 10 10 9 8 7 6 7 6 7 7 6 6 10 14 15 14 14 15 15
5 5 4 3 4 5 5 5 5 5 4 4 4 4 4 5 5 6 7 7 8 9 9 10 10 9 9 7 5 5 6 6 5 5 7 5 10 13 14 14 14 14 14
5 4 3 3 3 3 3 5 5 4 4 3 3 3 3 4 5 5 5 7 8 9 9 9 9 9 8 6 4 3 4 4 5 5 4 6 11 12 13 13 12 13 13
4 3 3 3 2 2 2 3 4 3 3 3 3 3 3 2 3 3 5 6 7 8 8 9 9 8 6 4 3 2 3 2 4 4 4 8 11 12 12 12 11 12 12
2 3 2 2 2 2 1 2 1 1 1 1 1 2 1 1 2 3 4 6 7 7 7 8 8 7 4 2 1 2 1 4 4 4 4 9 10 11 11 11 11 11 11
1 2 2 2 1 1 1 1 1 1 1 1 1 1 1 1 2 2 2 3 4 5 4 5 4 3 2 2 2 1 2 3 3 3 4 8 9 10 11 11 10 10 10
1 1 1 1 1 1 1 0 1 1 1 1 0 0 1 1 1 2 2 2 3 2 3 3 2 2 3 3 3 2 3 3 3 3 4 7 8 9 10 10 9 9 9
1 1 1 1 1 1 1 0 1 0 0 0 1 1 0 1 1 2 2 2 2 2 3 3 2 3 3 3 3 4 3 4 4 4 3 6 7 7 8 8 8 8 9
1 1 1 1 0 0 0 0 0 1 0 0 0 1 1 0 1 1 2 2 2 2 3 2 2 2 2 2 3 4 3 3 4 4 4 4 6 6 6 7 6 7 8
1 0 1 1 1 0 0 0 0 1 1 1 0 1 1 0 1 1 2 2 2 2 3 2 2 2 2 3 3 3 3 3 3 4 4 3 3 5 6 6 6 6 6
1 0 1 1 1 1 0 0 0 0 0 0 0 0 1 1 0 1 2 2 2 3 3 3 3 3 3 3 3 3 2 2 3 3 3 3 3 3 4 5 5 5 5
1 0 0 1 0 1 1 0 0 0 0 0 0 0 0 0 0 1 1 2 3 3 3 3 3 3 3 3 3 3 2 2 2 2 2 2 2 3 3 4 4 4 4
1 0 0 1 0 0 1 1 1 0 0 1 1 1 1 0 0 1 2 2 2 3 3 4 4 3 3 3 3 3 2 1 1 1 1 2 2 2 3 3 3 2 3
1 1 0 1 1 0 0 0 0 1 1 1 1 1 1 1 1 1 2 2 3 3 4 5 4 5 3 3 3 2 2 2 1 1 1 1 1 1 2 2 2 2 2
1 1 1 1 1 0 0 1 1 1 1 1 1 1 1 2 1 1 3 2 3 3 4 4 4 3 3 3 3 3 2 0 1 0 0 1 1 1 2 2 2 2 2
2 2 1 1 2 1 0 0 1 0 1 1 1 1 1 2 2 1 2 3 3 4 4 5 5 4 4 3 2 3 3 3 1 1 1 1 1 1 1 2 2 2 2
2 2 2 2 2 1 1 1 1 1 2 2 2 1 1 1 2 2 2 3 3 3 4 5 4 3 5 5 3 1 2 3 3 2 1 1 2 1 1 1 2 2 2
2 2 2 2 1 1 1 1 2 2 1 1 1 2 2 1 2 2 2 2 3 3 4 5 5 4 4 4 4 2 1 1 2 3 2 2 1 2 2 2 2 2 2
1 1 1 2 2 1 1 2 2 2 1 1 1 2 2 1 1 2 2 2 3 3 4 5 5 5 4 3 3 2 2 2 3 2 3 3 2 2 2 2 2 2 2
Wind_Direction
79 103 93 79 79 88 94 98 99 95 90 88 87 85 88 92 95 97 98 98 96 96 96 94 90 88 86 84 83 83 81 80 82 81 77 76 78 79 79 81 79 76 79
99 115 100 88 83 91 98 100 99 99 94 91 91 89 90 96 99 100 101 100 98 97 96 95 92 89 88 87 85 87 88 86 87 88 83 75 74 78 79 78 81 83 82
94 112 111 92 91 91 96 103 102 102 98 94 93 92 92 98 102 103 102 101 99 98 97 95 92 90 88 87 87 87 88 87 88 94 89 83 79 81 82 82 84 84 82
98 110 109 89 96 96 98 105 107 106 104 99 96 95 95 97 104 103 102 102 100 98 96 95 94 92 89 87 87 86 83 74 76 85 84 82 83 87 86 85 84 84 82
92 98 104 88 93 96 100 104 108 109 109 104 99 97 98 96 101 104 100 99 99 99 98 97 95 93 90 87 85 82 73 63 63 70 77 77 80 89 87 86 86 85 83
80 88 101 92 92 89 89 100 103 106 109 109 105 102 101 97 99 105 101 98 99 102 102 100 97 95 90 86 82 73 60 55 65 70 77 81 85 92 90 88 87 87 85
72 73 94 75 91 89 84 83 95 106 108 111 112 109 109 101 99 102 104 102 104 107 108 106 102 99 93 87 79 60 44 54 74 73 74 77 89 95 93 90 89 88 86
81 74 81 59 65 81 84 76 74 89 104 108 107 108 108 104 100 103 109 109 110 112 112 109 106 102 97 90 79 52 37 51 84 83 78 78 95 98 95 92 90 89 88
83 81 76 76 75 64 60 65 64 63 80 97 101 99 97 104 102 104 112 114 115 113 113 112 108 105 101 94 77 46 41 50 75 81 86 83 96 98 96 95 93 92 90
80 82 79 64 80 84 74 60 55 60 61 78 95 98 93 100 105 105 112 114 115 116 116 116 113 110 105 99 78 47 44 50 77 78 81 90 96 98 96 96 95 95 94
68 76 82 68 55 74 88 74 58 62 69 73 98 113 117 126 123 116 116 115 115 119 122 122 119 115 109 104 91 65 53 72 81 79 81 95 102 102 100 98 98 97 96
64 65 68 73 77 74 93 92 97 83 104 113 128 148 152 116 118 119 110 119 119 121 125 127 125 126 121 121 95 74 77 88 82 84 90 103 107 106 103 101 100 99 99
87 70 58 47 55 60 66 114 87 86 73 86 123 102 112 121 131 129 124 131 132 135 133 132 135 144 138 123 114 92 79 81 84 83 87 101 108 110 108 105 104 104 104
49 83 58 48 54 38 42 117 106 84 83 47 28 56 117 137 145 147 147 150 150 148 141 143 154 150 135 121 111 93 81 86 94 93 88 95 104 109 112 108 106 109 110
334 77 47 44 76 44 61 28 92 103 121 124 5 346 148 142 160 157 158 139 149 142 147 154 154 142 130 126 111 97 85 91 100 98 98 92 97 106 113 114 113 114 115
330 41 8 23 40 63 43 11 154 168 181 104 358 340 340 151 138 143 149 139 154 150 153 157 145 123 118 114 108 103 97 92 101 109 112 98 92 98 105 112 117 120 120
289 68 350 358 20 50 39 319 11 216 158 121 344 332 356 346 148 143 154 151 167 160 154 143 127 114 113 111 110 106 99 89 90 102 109 115 107 94 101 108 111 121 127
291 210 336 331 351 2 348 307 141 210 146 134 145 343 350 347 174 145 160 169 171 160 155 148 143 129 115 109 105 98 95 93 88 94 100 111 119 116 101 103 101 110 121
305 279 293 324 305 346 359 360 46 135 191 162 144 281 278 331 290 142 164 183 173 163 155 152 141 135 128 124 120 109 97 95 96 95 102 105 116 130 134 124 111 103 108
299 267 118 338 342 28 49 37 25 71 210 174 172 193 240 242 270 167 176 180 172 163 158 150 144 135 133 132 120 101 82 84 86 102 118 111 112 132 138 144 140 132 115
272 161 218 328 326 44 75 68 282 276 278 232 192 193 206 217 241 203 179 177 177 163 162 156 149 142 136 126 113 103 55 47 75 80 107 117 114 125 127 130 136 141 152
203 181 215 300 303 262 231 233 234 249 251 248 205 194 198 211 222 223 188 181 183 165 157 157 153 152 150 149 145 139 139 81 322 187 128 139 145 145 136 130 132 137 140
212 194 232 268 289 272 254 264 311 306 276 264 235 215 217 214 209 225 221 183 181 174 173 167 161 167 167 173 167 154 157 177 170 215 213 160 148 155 169 166 150 145 141
220 201 210 235 275 276 240 226 220 238 241 260 249 232 225 212 211 219 242 199 185 175 176 177 167 168 168 177 187 209 179 147 151 158 211 201 181 187 205 183 166 161 147
226 207 208 228 258 268 266 237 225 242 252 268 262 234 214 202 199 218 245 220 195 183 177 178 173 170 176 179 180 187 180 169 159 151 182 201 208 211 217 198 178 173 159
276 233 225 234 253 245 250 253 243 232 232 238 258 245 218 212 217 220 229 218 202 194 182 183 181 178 179 180 180 176 173 176 188 166 172 189 203 220 219 202 178 177 173